Location: Unspecified
(32.9951°S, 0.0000°E)
Time: 10:11:53
(UTC+00:00)

ISS - Visible Passes

Search period start: 04 April 2026 00:00
Search period end: 14 April 2026 00:00
Orbit: 417 x 425 km, 51.6° (Epoch: 29 March)

Date Brightness Start Highest point End Pass type
(mag) Time Alt. Az. Time Alt. Az. Time Alt. Az.
4 Apr -1.5 04:30:26 18° S 04:31:40 22° SE 04:34:23 10° E visible
5 Apr -0.3 03:45:48 11° ESE 03:45:48 11° ESE 03:46:12 10° ESE visible
5 Apr -3.7 05:18:51 17° SW 05:21:21 61° NW 05:24:42 10° NE visible
6 Apr -3.4 04:34:21 64° ESE 04:34:21 64° ESE 04:37:29 10° NE visible
7 Apr -2.0 05:23:01 16° WNW 05:23:22 16° NW 05:25:32 10° NNW visible
8 Apr -1.2 04:38:44 13° N 04:38:44 13° N 04:39:11 10° NNE visible
8 Apr -1.6 19:36:16 10° NW 19:37:34 22° NW 19:37:34 22° NW visible
9 Apr -3.0 18:49:14 10° NNW 18:52:22 35° NE 18:53:01 32° ENE visible
10 Apr -2.1 18:02:38 10° N 18:05:06 19° NE 18:07:36 10° E visible
10 Apr -1.9 19:38:39 10° WNW 19:41:18 30° SW 19:41:18 30° SW visible
11 Apr -3.2 18:50:56 10° WNW 18:54:17 57° SW 18:56:22 21° SSE visible
12 Apr -3.7 18:03:29 10° NW 18:06:52 73° NE 18:10:17 10° SE visible
12 Apr -0.9 19:42:19 10° WSW 19:44:01 13° SSW 19:44:16 13° SSW visible
13 Apr -1.3 18:53:48 10° W 18:56:23 20° SW 18:58:58 10° SSE visible
